Location: ???????
(55.4362°N, 38.1183°E)
Time: 13:08:57
(UTC+00:00)

Cosmos 2219 Rocket - Pass Details

Date: 21 October 2021
Orbit: 826 x 848 km, 71.0° (Epoch: 01 December)

Event Time Altitude Azimuth Distance (km) Brightness Sun altitude
Exits shadow 02:22:30 - 325° (NW) 3,276 5.0 -15.9°
Reaches altitude 10° 02:24:38 10° 327° (NNW) 2,464 4.3 -15.6°
Maximum altitude 02:30:18 77° 54° (NE) 870 2.4 -14.8°
Drops below altitude 10° 02:35:58 10° 141° (SE) 2,463 5.2 -14.0°
Sets 02:38:25 0° 143° (SE) 3,397 5.9 -13.6°
